www.pogodaiklimat.ru

АРХИВ ПОГОДЫ в Нью-Йорке Сити

Время (UTC), дата Ветер
(напр.,м/с)
 
Видим.   Явления Облачность Т
(С)
Тd
(С)
f
(%)
Тe
(С)
Тes
(С)
Комфортность

P
(гПа)

Po
(гПа)
Тmin
(С)
Tmax
(С)
R
(мм)
SD
(см)
08:33 18.02 З  10 км  дымка  10/10 150 м  +0.6  0.0  96  -5  -5      1010.1         
08:51 18.02 З  13 км    10/8 180 м
[средняя] 
+1.0  0.0  93  -5  -5    1015.4  1010.5         
09:04 18.02 З  14 км    10/8 210 м
[средняя] 
+1.1  0.0  92  -5  -5      1010.8         
09:51 18.02 З  16 км    8/8 630 м  +1.1  0.0  92  -5  -5    1016.6  1011.5         
10:00 18.02 З  16 км    5/5 630 м  +1.1  -0.6  88  -4  -4      1011.8         
10:51 18.02 нст  3
{8} 
16 км    2/2 780 м  +1.7  -0.6  85  -3  -3    1017.9  1012.8         
11:51 18.02 З  16 км    ясно  +1.7  -1.7  78  -3  -3    1019.6  1014.5         
12:51 18.02 нст  16 км    ясно  +1.7  -2.8  72  -1  -1    1021.3  1016.2         
13:51 18.02 нст  2
{8} 
16 км    ясно  +2.2  -4.4  62  -1  0    1022.5  1017.6         
14:51 18.02 СЗ  5
{9} 
16 км    ясно  +3.0  -5.0  56  -2  -1    1024.2  1019.2         
15:51 18.02 СЗ  4
{8} 
16 км    ясно  +4.0  -6.0  48  0  +4    1025.5  1020.6         
16:51 18.02 нст  16 км    ясно  +5.6  -5.0  46  +3  +10    1026.7  1021.6         
17:51 18.02 З  16 км    2/2 1410 м  +6.0  -5.0  45  +3  +6    1027.0  1021.9  +1.7       
18:51 18.02 СЗ  4
{7} 
16 км    ясно  +6.7  -5.0  43  +4  +9    1027.5  1022.6         
19:51 18.02 нст  16 км    ясно  +6.7  -5.6  41  +4  +8    1028.1  1022.9         
20:51 18.02 нст  16 км    ясно  +6.1  -5.0  45  +4  +7    1028.4  1023.3         
21:51 18.02 СЗ  16 км    ясно  +6.1  -5.0  45  +3  +4    1029.1  1024.3         
22:51 18.02 нст  16 км    ясно  +5.6  -5.0  46  +3  +3    1030.3  1025.3         
23:51 18.02 С  16 км    ясно  +5.0  -5.6  46  +3  +3    1031.0  1026.0         
00:51 19.02 СВ  16 км    ясно  +3.9  -5.0  52  +1  +1    1031.7  1026.6         
01:51 19.02 СВ  16 км    ясно  +4.4  -5.6  48  +3  +3    1032.5  1027.7         
02:51 19.02 СВ  16 км    ясно  +4.4  -6.1  46  +3  +3    1032.7  1027.7         
03:51 19.02 В  16 км    ясно  +3.3  -5.0  54  0  0    1033.2  1028.3         
04:51 19.02 штиль  16 км    ясно  +3.0  -6.0  52  +3  +3    1033.3  1028.3         
05:51 19.02 В  16 км    ясно  +3.9  -5.6  50  +2  +2    1033.4  1028.3         
06:51 19.02 нст  16 км    ясно  +2.8  -4.4  59  -0  -0    1033.4  1028.3         
07:51 19.02 ЮВ  16 км    ясно  +3.0  -3.0  65  -1  -1    1033.5  1028.3         
08:51 19.02 нст  16 км    ясно  +2.8  -1.7  72  +1  +1    1033.2  1028.3         
09:51 19.02 Ю  16 км    ясно  +2.8  -1.1  75  -1  -1    1033.1  1028.0         
10:51 19.02 нст  16 км    ясно  +3.9  -1.1  70  +1  +1    1033.3  1028.3         
11:51 19.02 штиль  16 км    ясно  +4.4  -1.1  67  +4  +4    1033.1  1028.0         
12:51 19.02 Ю  16 км    ясно  +5.0  -0.6  67  +2  +2    1033.1  1028.0         
13:51 19.02 нст  16 км    ясно  +6.7  0.0  62  +4  +5    1033.4  1028.3         
14:51 19.02 нст  16 км    ясно  +7.8  +0.6  60  +6  +9    1032.6  1027.7         
15:51 19.02 Ю  3
{7} 
16 км    10/5 810 м
[средняя] 
+7.8  +1.1  63  +5  +6      1027.7         
16:51 19.02 нст  16 км    10/10 1440 м  +8.3  +1.7  63  +6  +6    1031.5  1026.3         
17:51 19.02 Ю  16 км    10/10 1440 м  +8.3  +2.8  68  +6  +6    1030.6  1025.6         
18:51 19.02 Ю  16 км    10/10 1260 м  +8.3  +3.3  71  +6  +6    1029.1  1024.3         
19:51 19.02 Ю  16 км    10/10 990 м  +8.9  +3.9  71  +8  +8    1028.8  1024.0         
20:20 19.02 ЮВ  16 км    10/10 870 м  +9.4  +3.9  68  +8  +8      1023.6         
20:51 19.02 Ю  14 км    10/10 780 м  +9.4  +4.4  71  +8  +8    1028.7  1023.6         
21:51 19.02 Ю  16 км    10/10 540 м  +9.0  +6.0  81  +6  +6    1027.7  1022.6         
22:40 19.02 штиль  11 км  слабый дождь  10/10 390 м  +9.0  +7.0  87  +8  +8      1022.9         
22:51 19.02 нст  10 км  слабый дождь, дымка  10/10 390 м  +8.9  +7.2  89  +7  +7    1028.0  1022.9         
23:51 19.02 Ю  13 км    10/10 360 м  +9.4  +7.8  90  +8  +8    1027.4  1022.3  +8.3  +9.4  0.3   
23:59 19.02 штиль  13 км    10/10 360 м  +8.9  +7.8  93  +8  +8      1022.3         
00:51 20.02 штиль  8 км  слабый дождь, дымка  10/10 450 м  +8.9  +7.8  93  +8  +8    1027.2  1022.3         
01:04 20.02 штиль  5 км  слабый дождь, дымка  10/10 390 м  +9.0  +8.0  93  +8  +8      1022.6         

 

Местоположение метеостанции Central Park: широта 40.7833 долгота -73.9667 высота над уровнем моря 47 м.

В архиве по умолчанию представлена погода в Нью-Йорке Сити за последние 1-2 суток. Обновление информации о фактической погоде в базе происходит ежечасно! Архивные данные за месяц целиком и за предыдущие месяцы Вы можете получить, выбрав интересующий диапазон дат из раскрывающегося списка и нажав кнопку "Ввод!".

Внимание! Архив погоды МЕТАР в базе сайта в настоящее время начинается c 1 января 2013 г. Нет смысла пытаться выбрать более раннюю дату.

Внимание! Время в таблицах - всемирное. Для получения местного времени необходимо прибавить поправку, которая в Нью-Йорке Сити равна -5 ч.

Ветер - указаны скорость ветра в м/с и направление, откуда дует ветер: С - северный, СВ - северо-восточный, В - восточный, ЮВ - юго-восточный, Ю - южный, ЮЗ - юго-западный, З - западный, СЗ - северо-западный.
Видимость - горизонтальная дальность видимости в метрах или километрах. При видимости от 1 до 10 км при отсутствии осадков обычно наблюдается дымка, при ухудшении видимости до 1 км и менее - туман. В сухую погоду видимость может ухудшаться дымом, пылью или мглою.
Атмосферные явления - указаны явления, наблюдавшиеся в указанный момент времени.
Облачность - указаны через наклонную черту верхняя и нижняя облачность в баллах и высота нижней границы облаков в метрах. Внимание: облачность, как и прочие метеорологические величины в США измеряются автоматическими метеостанциями. Указанные значения в баллах носят условный характер и показывают процент времени, в течение которого, в среднем, лазерный луч высотомера отражался от облаков обратно.
T - Температура воздуха - температура, измеренная на высоте 2 м над землей.
Td - Температура точки росы - температура, при понижении до которой содержащийся в воздухе водяной пар достигнет насыщения.
f - Относительная влажность воздуха - влажноcть воздуха, измеренная на высоте 2 м над землей.
Te - Эффективная температура - температура, которую ощущает одетый по сезону человек в тени. Характеристика душности погоды. При расчете учитывается влияние влажности воздуха и скорости ветра на теплоощущения человека.
Tes - Эффективная температура на солнце - температура, которую ощущает человек, с поправкой на солнечный нагрев. Характеристика знойности погоды. Зависит от высоты солнца над горизонтом, облачности и скорости ветра. Ночью, в пасмурную погоду, а также при ветре 12 м/с и более поправка равна нулю.
P - Атмосферное давление - приведенное к уровню моря атмосферное давление.
Po - Атмосферное давление - измеренное на уровне метеостанции атмосферное давление.
Tmin - Минимальная температура - минимум температуры воздуха на высоте 2 м над землей.
Tmax - Максимальная температура - максимум температуры воздуха на высоте 2 м над землей.
R - Количество осадков - Количество выпавших осадков за 3 или 6 часов, мм.
SD - Снежный покров - Высота снежного покрова, см.